User: anonymous   Login
Location: Ostrava
(49.8330°N, 18.2830°E)
Time: 09:14:56
(UTC+02:00)
Language:

Lacrosse 5 - Orbit

View from above orbital plane
View from above orbital plane
View from above satellite
View from above satellite

Ground track
Ground track

The orbit data is extracted from the following two-line orbital elements,

1 28646U 05016A   17147.96221328 0.00000000  00000-0  00000-0 0    04
2 28646  57.0130 201.8270 0004000  92.9051 267.0949 14.51754632    09
Epoch (UTC): 27 May 2017 23:05:35
Eccentricity: 0.0004000
inclination: 57.0130°
perigee height: 717 km
apogee height: 723 km
right ascension of ascending node: 201.8270°
argument of perigee: 92.9051°
revolutions per day: 14.51754632
mean anomaly at epoch: 267.0949°
orbit number at epoch: 0

The dashed part of the orbit path shows where the satellite is in the earth's shadow,  

DLR